Home > Weather > Jackson > Past weeks

Flag for USA Weather for the Past 2 Weeks in Jackson, Mississippi, USA

Now
73 °F

Partly sunny.


Feels Like: 77 °F
Forecast: 58 / 71 °F
Wind: 14 mph from Northwest

Location: Hawkins Field

Current Time: May 3, 2016 at 5:15:08 PM

Latest Report: May 3, 2016 at 3:53 PM


Visibility: 10 mi

Pressure: 29.92 "Hg

Humidity: 50%

Dew Point: 53 °F

Location of JacksonLocation

Historic Weather in Jackson — Graph

°F

Jackson Temperature Yesterday

Maximum temperature yesterday: 74 °F (at 4:53 PM)
Minimum temperature yesterday: 63 °F (at 4:53 AM)
Average temperature yesterday: 68 °F

High & Low Weather Summary for the Past Weeks

 TemperatureHumidityPressure
High87 °F (Apr 28, 3:53 PM)97% (Apr 20, 9:53 PM)30.18 "Hg (Apr 20, 9:53 PM)
Low54 °F (Apr 23, 6:53 AM)36% (Apr 23, 3:53 PM)29.67 "Hg (Apr 27, 3:53 PM)
Average71 °F75%29.93 "Hg
* Reported Apr 18 3:53 PM — May 3 3:53 PM, Jackson, Weather by CustomWeather, © 2016

Note: Actual official high and low records may vary slightly from our data, if they occured in-between our weather recording intervals... More about our weather records

Advertising

Jackson Weather History for the Previous 24 Hours

Scroll right to see more
 ConditionsComfort  
Time TempWeatherWind HumidityBarometerVisibility
3:53 PM
Tue, May 3
73 °FPartly sunny.14 mph50%29.92 "Hg10 mi
2:53 PM72 °FScattered clouds.10 mph52%29.93 "Hg10 mi
1:53 PM72 °FPartly sunny.8 mph53%29.95 "Hg10 mi
12:53 PM72 °FPassing clouds.7 mph55%29.96 "Hg10 mi
11:53 AM70 °FPartly sunny.8 mph59%29.99 "Hg10 mi
10:53 AM70 °FPartly sunny.3 mph64%29.99 "Hg10 mi
9:53 AM68 °FPassing clouds.7 mph65%29.99 "Hg10 mi
8:53 AM64 °FOvercast.5 mph84%29.99 "Hg10 mi
8:04 AM62 °FMore clouds than sun.6 mph90%30.00 "Hg10 mi
7:53 AM62 °FMostly cloudy.7 mph90%29.98 "Hg10 mi
6:53 AM62 °FPassing clouds.3 mph90%29.96 "Hg10 mi
5:53 AM62 °FLow clouds.5 mph93%29.95 "Hg10 mi
4:59 AM62 °FMostly cloudy.6 mph93%29.97 "Hg10 mi
3:53 AM62 °FMostly cloudy.3 mph93%29.94 "Hg9 mi
2:53 AM62 °FOvercast.3 mph93%29.94 "Hg10 mi
1:53 AM62 °FMostly cloudy.5 mph90%29.96 "Hg10 mi
12:53 AM63 °FOvercast.6 mph90%29.97 "Hg10 mi
11:53 PM
Mon, May 2
64 °FMostly cloudy.5 mph90%29.97 "Hg10 mi
11:04 PM65 °FOvercast.7 mph87%30.00 "Hg10 mi
10:53 PM65 °FOvercast.8 mph87%29.98 "Hg10 mi
10:04 PM66 °FMostly cloudy.6 mph87%29.99 "Hg10 mi
8:53 PM67 °FOvercast.7 mph87%29.95 "Hg10 mi
7:53 PM69 °FOvercast.5 mph87%29.94 "Hg10 mi
6:53 PM71 °FOvercast.5 mph81%29.92 "Hg10 mi
5:53 PM73 °FBroken clouds.6 mph76%29.91 "Hg10 mi
Weather by CustomWeather, © 2016

See weather overviewHow to use our weather pages